Location: Newark
(45.0500°N, 41.9667°E)
Time: 07:24:54
(UTC+00:00)

Starlink (trailer) - Pass Details

Date: 31 July 2019
Orbit: 549 x 551 km, 53.0° (Epoch: 23 August)

Event Time Altitude Azimuth Distance (km) Brightness Sun altitude
Rises 20:24:41 0° 274° (W) 2,716 7.4 -25.6°
Reaches altitude 10° 20:27:07 10° 285° (WNW) 1,824 6.6 -25.7°
Maximum altitude 20:30:49 31° 348° (NNW) 990 5.5 -25.8°
Drops below altitude 10° 20:34:31 10° 51° (NE) 1,828 6.6 -26.0°
Sets 20:36:58 0° 62° (ENE) 2,723 7.4 -26.1°
